EW0183 Weather Reports


time (UTC)temp
C
wind
direction
speed
KPH
gust
KPH
rain 1hr
cm
rain 24hr
cm
rain mn
cm
humidity
%
barometer
mb
20260505041613 21 360 6.4 14.5 0.00 0.00 0.00 41 1004.1
20260505040056 21 360 1.6 14.5 0.00 0.00 0.00 42 1004.0
20260505034558 21 360 4.8 16.1 0.00 0.00 0.00 43 1003.9
20260505033055 22 360 4.8 16.1 0.00 0.00 0.00 52 1003.6
20260505031602 21 360 6.4 11.3 0.00 0.00 0.00 60 1003.2
20260505030054 18 360 3.2 12.9 0.00 0.00 0.00 69 1002.9
20260505024553 16 360 3.2 8.0 0.00 0.00 0.00 81 1002.5
20260505023100 17 360 0.0 0.0 0.00 0.00 0.00 79 1001.8
20260505021554 18 360 0.0 0.0 0.00 0.00 0.00 77 1001.7
20260505020052 18 360 0.0 0.0 0.00 0.00 0.00 75 1001.4
20260505014551 19 360 0.0 0.0 0.00 0.00 0.00 73 1001.1
20260505013052 20 360 0.0 0.0 0.00 0.00 0.00 71 1001.0
20260505011551 21 360 0.0 1.6 0.00 0.00 0.00 68 1000.8
20260505010050 23 360 1.6 3.2 0.00 0.00 0.00 62 1000.7
20260505004550 24 360 0.0 3.2 0.00 0.00 0.00 58 1000.5
20260505003049 25 360 1.6 4.8 0.00 0.00 0.00 52 1000.4
20260505001553 25 265 1.6 6.4 0.00 0.00 0.00 51 1000.3
20260505000054 26 287 0.0 8.0 0.00 0.00 0.00 52 1000.4
20260504234557 26 173 3.2 6.4 0.00 0.00 0.00 51 1000.4
20260504233047 26 229 3.2 8.0 0.00 0.00 0.00 50 1000.4
20260504231558 26 213 3.2 9.7 0.00 0.00 0.00 50 1000.5
20260504230046 26 318 3.2 12.9 0.00 0.00 0.00 49 1000.4
20260504224545 27 223 8.0 14.5 0.00 0.00 0.00 47 1000.4
20260504223046 27 222 6.4 16.1 0.00 0.00 0.00 45 1000.4
20260504221553 27 256 6.4 14.5 0.00 0.00 0.00 44 1000.3
20260504220043 27 234 6.4 19.3 0.00 0.00 0.00 44 1000.4
20260504214543 27 270 4.8 14.5 0.00 0.00 0.00 44 1000.6
20260504213041 27 170 4.8 17.7 0.00 0.00 0.00 46 1000.7
20260504211548 27 257 6.4 14.5 0.00 0.00 0.00 43 1000.7
20260504210059 27 237 9.7 20.9 0.00 0.00 0.00 42 1000.7
20260504204546 27 161 6.4 16.1 0.00 0.00 0.00 43 1000.8
20260504203042 27 225 3.2 16.1 0.00 0.00 0.00 49 1001.1
20260504201533 27 250 4.8 17.7 0.00 0.00 0.00 45 1001.3
20260504200032 27 232 6.4 14.5 0.00 0.00 0.00 45 1001.4
20260504194546 27 230 4.8 16.1 0.00 0.00 0.00 45 1001.5
20260504193030 26 308 6.4 17.7 0.00 0.00 0.00 49 1001.5
20260504191535 26 151 6.4 17.7 0.00 0.00 0.00 48 1001.4
20260504190029 26 209 4.8 16.1 0.00 0.00 0.00 52 1001.6
20260504184530 26 281 3.2 14.5 0.00 0.00 0.00 50 1001.7
20260504183021 25 180 8.0 17.7 0.00 0.00 0.00 51 1001.8
20260504181519 25 205 6.4 17.7 0.00 0.00 0.00 52 1001.8
20260504180019 25 244 9.7 17.7 0.00 0.00 0.00 50 1001.9
20260504174514 25 274 6.4 17.7 0.00 0.00 0.00 53 1002.0
20260504173018 24 200 11.3 19.3 0.00 0.00 0.00 52 1002.1
20260504171509 23 289 6.4 11.3 0.00 0.00 0.00 52 1002.2
20260504081557 13 296 0.0 0.0 0.00 0.00 0.00 75 1004.7
20260504044528 18 360 0.0 6.4 0.00 0.00 0.00 60 1006.6
20260504043024 19 360 3.2 8.0 0.00 0.00 0.00 59 1007.1